Temp
10 10 10 10 11 13 14 14 14 14 14 14 15 15 16 17 17 17 17 17 17 16 16 17 18 17 17 17 17 19 19 19 19 19 19 18 19 18 19 18 18 19 19 18 17 17 17
10 10 10 10 10 13 13 13 14 14 14 14 15 15 15 17 17 17 17 17 16 16 16 17 16 16 16 18 18 18 19 18 18 18 18 18 18 18 18 19 19 18 18 17 16 17 17
10 10 10 10 11 13 13 13 14 14 14 14 14 15 15 16 17 17 17 17 17 17 16 16 16 16 16 18 18 18 18 18 18 19 18 19 19 19 18 18 17 17 19 17 16 17 17
11 10 10 10 11 13 13 13 14 14 14 15 15 15 14 15 16 16 16 17 17 17 16 16 15 16 16 18 18 18 18 18 18 18 19 18 19 18 18 16 15 17 16 17 17 16 16
11 10 9 10 11 12 13 13 13 14 14 15 15 15 14 14 15 16 16 16 16 16 16 16 15 16 17 17 17 17 18 18 18 18 18 18 18 16 17 15 15 14 16 16 18 15 16
11 10 9 9 11 12 13 13 13 14 14 14 14 15 14 14 15 16 16 15 15 15 15 15 15 16 16 17 17 17 17 18 17 17 17 17 13 14 13 14 15 16 16 16 17 16 15
11 10 9 9 11 12 12 13 13 13 14 14 15 15 14 14 14 15 15 15 13 14 15 16 17 17 16 16 16 16 17 17 17 17 16 15 15 15 15 15 17 15 17 18 17 15 16
10 9 9 9 12 12 12 12 13 13 14 14 14 15 14 14 14 15 15 13 16 16 17 14 16 16 16 16 16 16 17 17 17 16 15 15 14 15 16 14 16 16 17 16 16 14 15
10 9 9 9 11 11 12 12 13 13 14 14 14 14 14 14 14 14 14 15 15 15 16 16 15 16 16 16 16 15 15 15 16 15 14 14 16 15 16 15 15 16 15 15 16 14 12
9 8 8 9 11 11 11 12 12 13 13 14 14 14 14 14 13 14 14 15 15 15 14 16 15 16 15 15 16 15 15 16 16 15 13 15 15 16 16 16 14 16 14 15 14 11 11
9 9 10 10 10 11 12 12 12 13 13 13 14 14 13 13 13 13 14 14 14 15 13 16 15 15 15 15 14 15 15 16 15 14 14 14 14 15 15 15 14 14 11 11 11 8 9
9 10 10 11 11 11 12 12 12 12 13 13 14 14 13 13 13 14 14 14 14 14 13 15 14 14 15 15 15 14 15 14 14 14 12 12 11 12 12 10 12 9 11 9 7 7 6
9 9 10 10 11 11 11 12 12 12 12 13 14 13 12 12 13 13 13 12 14 13 17 15 14 14 15 14 14 15 14 13 12 14 13 12 12 11 11 11 12 11 11 8 9 6 10
9 9 10 10 9 10 11 12 12 12 12 13 13 12 12 13 13 13 13 14 15 16 15 15 14 14 14 14 14 14 12 12 11 12 9 12 13 11 9 11 10 11 10 9 11 10 12
9 8 8 8 9 9 10 10 12 10 10 12 11 11 11 12 13 12 11 12 14 15 15 14 15 15 14 14 13 14 12 10 10 10 13 11 13 9 8 9 9 10 10 9 4 4 5
8 7 8 8 8 8 8 9 11 9 10 10 10 11 11 12 12 12 12 13 14 13 13 14 15 14 13 13 13 12 11 11 10 10 9 11 11 9 8 9 8 9 8 9 5 8 9
6 6 6 6 8 9 8 7 9 11 9 8 9 12 11 11 12 11 11 12 13 11 12 13 13 13 14 12 11 12 12 10 10 9 9 8 8 9 9 8 7 7 5 6 7 6 7
6 6 6 6 9 5 5 7 7 13 10 9 10 12 11 11 12 8 11 12 12 11 11 12 12 13 12 11 12 12 11 11 9 8 10 8 6 6 10 3 2 5 6 7 8 6 1
6 6 5 6 6 6 5 10 13 12 10 9 10 10 10 11 12 10 10 10 10 11 11 11 11 12 12 11 12 11 10 9 9 9 8 7 7 7 11 6 5 4 5 1 1 2 2
7 5 6 5 8 6 5 10 9 10 11 9 10 11 10 8 7 10 10 11 10 10 10 10 11 11 12 11 10 9 9 9 9 9 9 9 8 8 9 9 4 3 4 4 1 3 3
5 6 9 10 8 7 9 9 7 9 9 10 8 10 9 9 9 9 10 10 10 10 10 10 10 11 11 10 10 9 8 8 8 9 6 6 6 7 7 7 5 3 3 3 1 -0 6
5 5 6 4 4 8 6 5 7 10 10 10 9 9 7 8 9 9 9 9 10 8 9 10 10 9 9 10 10 9 8 8 8 7 6 4 3 0 -1 4 -1 1 2 1 2 -4 -3
4 4 4 5 5 5 4 5 9 10 10 9 7 7 8 7 8 8 9 9 9 8 7 7 9 8 8 7 5 3 3 3 5 6 4 0 1 -0 3 3 -1 2 0 -2 -3 -7 -1
4 4 4 3 3 3 3 5 8 9 9 8 6 5 5 8 7 8 8 8 7 8 7 6 7 8 4 2 2 3 2 2 2 2 3 1 -0 -2 -0 -0 3 3 -6 -5 -2 -7 -11
4 4 4 3 3 3 3 3 4 7 7 8 5 5 3 6 6 7 7 6 6 5 5 5 3 2 2 4 4 5 4 5 2 1 3 2 2 -2 0 -1 4 3 -1 -1 1 2 -6
3 3 3 3 3 4 4 3 4 6 6 6 4 4 3 4 7 6 6 6 4 2 3 3 3 2 3 3 4 3 5 6 3 2 1 1 -1 0 -3 -1 3 4 3 1 -2 1 -2
3 3 3 3 3 3 2 2 3 4 6 6 4 4 3 2 2 3 4 5 3 1 1 1 1 3 2 2 3 3 5 4 3 2 1 -1 -2 -1 -2 -3 -0 1 -0 -2 2 2 -3
3 3 3 3 3 3 2 2 3 6 7 7 4 4 4 0 -0 -1 -1 3 2 1 2 -0 1 -0 -1 1 2 1 -2 -1 -2 1 -1 -1 -1 -2 -3 -3 1 0 1 2 -1 -3 -3
3 3 2 2 2 3 2 2 2 3 6 7 5 3 3 -1 -1 -2 -2 -2 -1 -1 -1 -2 -0 -1 0 -1 -4 -4 -2 -7 -6 -1 -3 0 -1 -1 0 1 -3 -5 -3 -5 -3 -3 -4
Height
798 796 794 791 788 786 784 782 780 778 776 774 772 770 767 766 765 765 764 763 763 763 763 762 763 765 766 767 765 761 763 763 763 764 766 768 771 776 780 779 781 783 782 783 785 785 785
798 795 794 791 789 787 785 782 780 778 776 773 771 768 767 765 764 764 763 761 760 762 762 762 763 766 768 771 761 760 762 762 764 764 766 768 769 771 776 778 781 781 783 785 786 786 787
797 795 793 791 788 786 784 782 780 778 776 774 771 768 766 764 763 762 761 761 761 761 762 762 764 765 763 764 761 760 763 763 763 763 765 768 768 771 773 781 779 783 785 787 787 787 788
795 794 792 790 787 786 783 781 779 777 775 773 770 768 765 763 763 762 760 759 759 759 760 763 764 763 765 760 761 762 762 763 763 764 766 766 768 771 774 780 786 788 793 797 788 789 789
793 792 792 790 787 785 783 780 778 776 774 772 770 767 764 762 761 761 760 758 758 758 758 761 764 764 763 760 761 761 762 762 764 765 766 767 769 778 779 790 798 800 801 800 788 791 789
793 791 790 789 787 785 782 780 777 775 773 771 769 767 763 760 760 758 759 761 758 760 759 762 764 768 762 759 758 761 762 763 764 766 769 771 780 787 793 795 810 796 799 797 791 789 792
791 789 788 787 785 783 781 779 776 773 771 769 767 766 763 759 758 757 759 761 764 764 758 757 759 760 758 758 759 761 761 763 764 768 777 776 784 790 785 787 785 791 790 788 787 791 793
790 789 787 785 782 781 780 777 775 772 770 767 765 763 761 759 757 757 758 759 757 759 757 754 756 757 757 757 761 761 761 765 767 776 776 783 787 780 779 786 785 787 790 794 791 794 795
789 788 785 784 782 779 778 775 773 771 768 765 764 762 759 758 757 757 756 756 755 756 760 755 754 756 757 757 759 762 761 763 768 777 779 783 776 777 778 783 787 789 795 792 792 797 803
788 786 783 782 780 778 776 773 771 768 766 763 761 760 758 757 759 755 755 754 755 756 770 757 757 756 756 756 761 761 760 763 768 775 781 778 777 776 779 781 787 787 790 789 795 810 819
787 784 782 780 778 775 773 771 769 766 764 761 758 757 756 756 754 754 755 754 755 756 794 756 758 755 755 759 763 762 762 762 769 773 776 780 780 780 781 784 788 790 798 802 809 829 824
786 784 781 778 775 773 770 768 766 763 761 758 756 754 755 754 753 752 753 754 756 775 785 758 756 758 760 759 761 763 763 763 767 772 781 785 788 788 789 796 792 802 803 816 830 834 861
785 783 780 777 774 772 769 765 762 760 757 755 752 752 753 751 751 751 753 756 771 782 748 755 757 758 757 762 764 763 767 772 779 781 782 785 788 793 792 795 795 799 806 839 841 861 831
784 782 779 776 773 769 766 762 759 756 754 751 749 750 750 749 750 751 754 760 767 750 751 749 753 758 758 760 762 765 771 774 778 777 797 789 790 793 799 795 799 801 808 825 825 830 807
782 780 778 774 770 767 763 759 756 752 750 748 748 749 750 750 749 751 759 770 757 749 745 752 753 755 759 759 763 765 771 780 776 778 776 790 781 801 802 801 802 803 809 812 851 863 856
783 780 777 773 769 765 761 756 752 748 745 745 747 748 748 747 748 752 759 756 748 749 750 750 752 752 761 763 764 768 775 772 775 777 781 780 790 802 803 802 805 806 811 814 843 842 830
784 781 777 773 768 764 758 753 750 747 743 744 747 744 745 749 751 756 763 754 748 752 752 751 752 753 754 760 767 768 767 775 774 780 781 791 795 804 802 805 810 815 826 824 822 835 840
784 780 777 773 768 764 759 753 748 747 743 744 744 747 747 750 755 766 757 750 751 753 753 752 751 750 754 761 763 765 767 770 776 779 781 788 801 814 795 822 827 814 811 812 815 832 870
784 781 777 773 769 764 758 752 748 747 745 745 745 749 749 749 754 758 757 754 755 754 754 753 753 752 755 758 761 765 772 776 776 777 784 789 800 812 788 813 817 820 818 838 837 841 855
785 782 778 775 769 763 758 752 748 745 746 748 746 746 750 752 756 752 754 752 754 756 755 755 754 753 755 757 765 773 776 777 777 778 778 780 791 794 795 789 815 827 820 823 841 843 841
787 783 778 773 769 762 756 754 748 744 744 747 748 748 752 753 752 752 750 753 755 755 755 755 756 755 755 765 763 770 776 779 781 779 788 789 803 794 799 801 810 821 823 823 840 840 814
788 782 778 774 769 764 759 754 748 744 744 744 748 749 754 756 752 751 753 753 751 757 757 754 754 760 760 761 758 767 772 776 775 786 790 799 815 830 845 815 836 828 823 826 825 855 850
791 786 781 776 771 765 761 754 748 743 743 742 746 747 750 758 755 756 750 750 750 756 761 760 757 762 764 772 777 782 785 786 783 786 798 815 821 837 827 823 839 831 820 830 835 852 828
793 789 784 779 775 769 763 757 751 747 745 745 747 749 755 755 758 755 753 754 757 756 759 765 765 763 779 778 782 783 789 793 795 800 797 813 825 843 842 838 830 802 830 830 823 838 852
796 792 788 783 778 773 768 762 756 752 749 747 748 749 754 759 758 756 758 761 763 766 767 769 775 777 777 778 785 787 794 790 802 808 801 803 810 842 839 847 803 799 810 815 807 803 828
799 795 791 785 778 773 768 765 760 755 751 749 749 748 748 758 756 757 759 761 769 777 775 778 779 779 779 783 787 801 790 780 799 805 809 809 816 821 853 848 815 788 790 796 807 814 809
801 797 793 789 784 779 773 769 764 758 753 752 751 749 748 759 762 761 762 763 765 774 781 781 782 780 781 789 794 797 784 788 798 802 814 822 830 831 839 853 816 794 797 801 810 804 807
803 798 794 790 785 781 775 769 764 759 755 754 754 751 751 759 765 765 766 763 766 768 773 780 782 785 792 792 790 797 814 805 811 799 810 812 818 833 842 851 815 793 796 797 803 806 808
806 801 796 792 787 783 779 773 768 763 759 755 754 754 753 755 767 767 768 769 769 770 772 779 778 779 777 789 804 809 804 829 829 810 808 804 800 807 801 795 801 805 802 806 804 807 812
Wind_Speed
10 11 11 11 11 11 11 12 13 13 14 13 11 12 11 9 8 8 7 7 7 6 6 4 3 1 2 1 6 3 3 4 5 7 5 3 4 4 3 3 4 2 2 2 1 1 1
11 11 12 12 12 11 12 12 13 13 13 14 14 14 14 10 8 7 7 6 4 5 5 4 4 4 2 4 3 3 3 6 5 6 4 4 4 5 3 2 3 2 2 1 0 1 1
13 13 12 12 12 11 12 13 13 13 14 13 13 14 15 13 8 6 6 6 5 4 4 4 5 5 2 5 2 4 5 3 4 4 4 3 4 2 3 3 2 3 1 2 2 1 0
13 13 13 13 12 12 12 12 13 14 15 15 14 13 15 12 9 7 5 6 5 4 3 4 6 4 5 2 4 4 4 3 4 4 3 4 4 4 3 3 5 3 4 1 1 3 0
13 13 14 14 13 13 13 13 13 14 14 15 16 14 13 11 7 6 5 3 1 4 5 5 3 2 4 3 3 4 4 4 5 5 4 6 4 3 4 5 4 5 2 4 3 4 2
14 14 14 14 14 14 14 14 14 15 15 16 16 17 14 10 8 4 1 2 7 6 8 4 0 1 1 3 3 4 4 7 3 4 4 4 4 3 3 3 5 5 4 4 3 2 0
14 14 13 14 14 14 14 15 15 15 16 16 15 16 15 11 7 2 7 5 3 3 1 5 2 2 2 3 4 2 4 5 3 4 4 1 3 6 10 5 3 5 3 2 2 1 2
13 13 13 14 14 15 16 16 16 16 16 16 16 15 14 10 5 5 7 2 2 1 3 4 2 1 1 4 3 0 5 4 3 4 4 4 6 5 3 5 4 2 2 4 1 1 1
13 12 13 14 15 16 17 18 18 17 16 17 16 14 11 8 3 5 6 3 2 1 1 2 3 3 2 4 2 6 4 3 3 5 5 6 2 4 4 4 5 3 5 4 3 2 3
13 12 12 13 15 16 17 17 18 18 17 16 16 14 9 5 3 2 3 5 4 3 3 3 3 3 2 4 1 0 1 2 1 8 7 3 1 3 3 3 5 4 1 3 4 4 3
13 12 13 14 15 16 17 17 18 18 18 17 15 12 8 6 1 2 1 5 5 2 2 2 2 1 1 4 5 2 1 2 5 5 5 3 1 3 2 2 0 2 4 4 3 5 3
12 13 14 14 15 17 18 18 18 18 18 17 15 10 6 5 6 3 5 6 2 5 6 3 3 4 4 1 1 2 2 4 3 4 5 3 1 3 3 2 2 7 6 6 5 3 2
9 12 14 14 14 16 17 18 18 19 19 17 13 8 6 5 1 7 7 2 3 4 1 4 4 4 3 4 2 3 3 3 5 5 4 2 1 1 2 5 4 4 5 2 4 3 5
10 12 14 16 17 19 20 21 21 21 20 16 10 5 5 4 4 7 4 3 4 4 5 3 3 3 5 5 2 3 4 3 2 3 3 6 4 3 3 1 6 3 5 5 7 4 2
11 13 14 17 19 19 21 22 25 22 19 12 4 4 4 5 7 8 3 2 7 5 3 8 2 3 4 2 4 3 5 5 6 7 7 5 2 1 3 1 2 4 3 3 7 2 3
12 13 14 17 18 21 21 21 22 22 15 4 3 3 2 3 8 4 2 5 3 1 3 2 8 4 7 5 5 6 6 2 5 3 1 4 3 1 1 1 3 3 3 3 3 2 3
13 15 15 17 20 19 24 21 16 20 9 5 4 0 4 5 7 3 3 6 2 0 0 4 6 4 3 6 7 5 4 1 2 3 3 3 3 0 2 4 6 1 1 3 3 3 5
15 16 18 19 23 21 20 21 15 18 2 6 2 1 3 9 2 1 3 2 1 2 1 1 2 2 5 6 4 5 7 0 4 6 6 1 4 3 2 1 0 1 4 4 4 5 2
18 19 18 21 22 22 22 22 12 17 5 2 2 2 4 2 3 3 2 0 0 3 2 3 3 1 1 5 3 3 4 1 3 3 5 5 0 2 2 1 1 1 2 3 3 3 5
14 18 19 20 24 25 23 13 18 3 10 3 1 1 2 2 1 4 5 4 3 1 1 1 2 2 3 3 3 5 3 1 2 2 6 2 3 4 6 3 4 2 5 4 3 3 4
17 17 16 18 24 26 25 20 19 4 8 2 2 1 1 3 3 2 2 4 4 4 1 1 1 2 4 4 3 3 3 3 4 2 3 3 4 1 1 2 2 3 5 8 6 5 6
19 20 22 24 25 25 26 26 23 3 4 2 2 2 2 0 1 4 2 5 7 2 3 3 3 3 2 3 2 6 6 4 3 2 3 3 3 3 3 2 4 3 5 8 8 3 2
20 22 22 23 25 27 27 27 22 13 1 3 2 3 3 1 2 3 3 3 6 7 0 2 2 4 4 3 4 4 4 5 4 6 3 3 5 3 3 3 2 5 9 7 4 3 7
22 23 24 25 25 26 28 29 25 18 8 1 2 1 3 2 2 3 3 2 3 1 5 2 3 3 3 6 6 5 9 9 8 6 2 5 4 3 3 2 2 6 2 4 5 4 3
22 23 23 24 25 25 26 27 28 21 13 7 2 2 2 1 1 1 4 4 4 4 3 3 3 2 5 4 3 4 3 2 3 5 3 2 4 3 4 3 5 1 5 6 7 7 6
22 22 24 26 28 29 29 28 27 24 14 5 14 3 1 4 3 1 3 2 3 2 2 2 3 2 3 2 2 4 5 4 4 2 3 4 5 4 3 5 7 3 2 3 4 5 7
23 23 24 25 25 27 28 28 26 26 17 5 11 8 2 3 1 1 2 3 5 3 3 1 3 2 2 2 2 3 4 4 5 8 5 2 2 5 3 3 8 4 4 3 6 6 5
24 24 25 26 27 27 29 29 29 26 22 9 6 16 3 2 2 4 4 2 2 2 4 3 4 2 2 2 3 3 3 4 3 4 6 7 7 4 3 2 8 3 4 6 2 4 5
26 25 25 26 26 26 28 28 28 26 22 12 5 10 9 4 2 4 8 6 3 1 3 2 2 3 3 3 1 3 2 2 2 3 2 1 6 5 8 5 1 3 3 2 1 4 4
Wind_Direction
335 337 333 339 340 339 341 342 344 346 346 346 348 345 341 331 316 307 305 301 285 277 258 246 257 218 162 80 250 168 196 175 168 161 162 132 131 139 185 167 128 181 178 99 40 92 106
328 332 331 336 335 336 336 338 339 341 343 345 346 344 339 331 312 300 304 305 288 274 263 233 215 193 205 228 154 150 166 150 170 151 148 147 183 192 125 161 155 146 113 91 18 348 14
326 327 328 329 331 334 335 334 336 338 338 340 343 344 340 331 314 297 297 288 274 263 245 216 197 186 82 243 176 158 152 155 159 153 141 170 139 111 120 115 122 106 16 333 216 208 89
321 321 322 325 327 329 330 331 336 338 337 334 335 341 342 332 319 302 291 286 274 242 201 202 184 160 231 198 171 163 156 144 132 135 122 135 131 101 80 116 28 72 56 12 268 154 33
319 319 321 323 323 325 327 329 331 334 334 334 330 333 341 334 321 305 301 311 190 152 136 140 152 165 263 161 179 179 179 140 124 109 95 108 78 93 56 94 20 15 217 209 301 194 107
318 316 317 320 320 323 325 326 329 329 329 331 333 328 334 334 319 309 252 92 113 114 121 121 63 334 195 204 142 156 142 150 121 111 68 57 57 85 52 107 212 203 211 237 243 199 122
313 311 315 318 318 319 321 323 324 324 326 325 327 328 329 332 314 226 149 133 31 336 185 178 203 262 142 127 125 113 138 129 98 68 145 30 117 201 207 186 128 131 175 196 193 79 209
315 317 318 316 315 317 317 319 320 321 321 321 322 324 326 328 311 196 179 175 210 267 289 202 228 236 158 169 113 151 154 138 144 164 120 51 234 217 139 160 168 175 196 250 298 89 159
313 320 321 320 319 319 318 320 320 317 318 318 318 318 323 319 288 198 215 230 218 215 272 215 183 185 204 144 193 186 140 140 141 144 182 161 219 138 147 144 148 180 179 192 189 91 60
316 319 324 321 319 318 319 320 319 318 316 315 314 314 313 304 216 190 227 217 194 157 30 227 216 227 125 142 185 86 154 147 132 186 159 225 329 147 141 169 132 204 205 109 121 91 223
316 320 320 320 320 320 320 319 319 319 316 315 312 307 291 237 218 187 203 167 159 104 2 154 169 142 125 151 133 4 358 62 165 149 119 236 133 149 159 155 179 180 70 87 82 95 52
326 325 325 324 327 327 324 321 319 318 315 311 309 298 269 232 228 221 175 155 139 57 250 172 132 164 126 113 98 114 83 42 120 99 50 89 43 44 110 80 51 155 75 52 55 78 34
333 332 335 337 339 331 327 323 321 319 315 309 307 283 231 199 249 182 162 110 68 163 194 186 182 168 156 153 147 147 155 124 150 135 199 46 47 47 63 84 25 75 78 356 353 6 219
334 334 331 323 323 326 333 333 327 321 313 306 298 254 227 206 194 161 156 70 192 230 200 114 123 101 167 159 166 133 122 170 232 105 118 162 282 162 3 79 174 173 148 159 201 199 239
342 342 339 339 334 326 320 320 329 321 314 302 255 201 207 188 169 164 86 123 209 203 150 146 79 145 212 185 143 132 190 198 195 183 176 144 198 33 46 29 69 190 192 132 101 52 53
353 351 345 346 344 340 333 323 321 323 314 267 178 204 144 147 153 133 89 244 223 136 120 146 189 168 182 192 158 174 184 188 178 189 133 189 106 357 144 124 41 138 161 85 1 138 246
11 7 3 2 357 345 334 332 323 325 314 178 216 136 71 148 138 61 205 230 209 17 227 187 203 152 180 176 174 192 193 168 159 124 105 123 95 186 128 195 178 103 0 38 111 118 168
14 11 7 2 358 358 354 349 339 338 320 157 86 168 156 161 123 266 210 213 85 173 283 212 111 120 170 163 149 196 200 128 156 153 157 162 138 156 169 311 248 76 183 161 132 243 82
15 10 5 6 1 1 0 7 356 319 197 241 151 147 122 117 189 226 285 250 154 183 211 176 153 176 150 166 147 141 129 20 160 130 162 192 268 84 344 30 71 192 185 104 108 86 201
8 7 7 5 4 3 5 348 354 265 209 251 139 90 33 72 325 157 169 208 201 310 145 80 136 118 122 127 20 158 128 84 88 99 82 122 109 157 189 180 122 154 187 165 123 122 173
11 11 3 352 1 3 8 0 0 359 169 209 352 180 197 209 251 179 132 136 151 192 64 106 42 237 167 137 125 158 118 115 43 90 53 93 154 118 53 44 85 189 161 188 193 193 166
18 14 10 12 10 6 7 8 13 355 160 138 105 148 63 51 172 135 160 225 177 160 152 205 193 141 129 158 182 182 135 181 178 77 87 13 155 84 334 92 64 273 227 196 212 243 298
24 22 18 13 9 7 9 11 17 20 181 75 75 65 113 294 64 100 234 197 195 146 350 44 153 125 120 126 98 81 64 73 119 141 122 97 130 97 261 5 16 328 229 181 180 219 151
22 20 19 17 15 12 12 13 18 25 31 93 91 93 108 236 167 209 164 127 149 160 141 50 38 107 138 108 110 63 54 60 58 34 72 128 104 93 207 23 327 245 183 174 171 220 196
22 18 16 16 15 14 15 16 17 21 38 71 90 154 130 144 150 130 116 109 86 43 65 83 29 37 136 119 77 81 9 47 47 30 18 28 121 103 144 203 306 187 213 169 160 255 192
20 18 15 14 13 13 14 13 16 20 21 39 37 50 127 124 223 73 133 160 151 110 35 60 36 90 84 91 98 162 207 190 192 95 49 62 59 115 122 160 217 259 170 159 126 301 188
18 15 14 13 13 12 12 12 13 18 22 37 34 26 89 105 274 17 162 175 131 99 119 143 179 133 23 117 128 173 230 158 177 175 178 113 47 172 175 237 287 236 160 159 106 241 142
16 14 12 10 9 9 9 8 11 16 17 18 40 27 39 95 29 11 5 118 99 143 152 188 78 320 55 144 155 206 149 222 101 163 177 164 153 190 100 128 279 132 83 172 184 39 108
11 9 8 7 7 5 4 5 7 8 17 16 29 11 36 78 111 80 83 70 63 84 128 24 173 161 183 91 64 98 160 77 120 242 26 272 183 179 183 211 65 13 64 17 81 124 111